This is the latest recevied weather packets stored in our database for station/object KG2V. If no packets are shown the sender has not sent any weather packets the latest 10 day(s).
| Time | Temp. | Humidity | Pressure | Rain* | Wind** | Luminosity | Snow |
|---|---|---|---|---|---|---|---|
| 1777636996 | 4.44° C | 85% | 1009.7 hPa | 0 mm | - | 40 W/m² | - |
| 1777636691 | 3.89° C | 88% | 1009.6 hPa | 0 mm | - | 49 W/m² | - |
| 1777636388 | 3.89° C | 91% | 1009.3 hPa | 0 mm | - | 33 W/m² | - |
| 1777636083 | 3.33° C | 95% | 1009.4 hPa | 0 mm | - | 30 W/m² | - |
| 1777635779 | 3.33° C | 97% | 1009.3 hPa | 0 mm | - | 29 W/m² | - |
| 1777635476 | 2.78° C | 98% | 1009.5 hPa | 0 mm | - | 28 W/m² | - |
| 1777635173 | 2.78° C | 98% | 1009.4 hPa | 0 mm | - | 27 W/m² | - |
| 1777634868 | 2.22° C | 98% | 1009.5 hPa | 0 mm | - | 26 W/m² | - |
| 1777634566 | 2.22° C | 98% | 1009.2 hPa | 0 mm | - | 26 W/m² | - |
| 1777634263 | 1.11° C | 98% | 1009.3 hPa | 0 mm | - | 25 W/m² | - |
| 1777633959 | 1.11° C | 98% | 1009.3 hPa | 0 mm | - | 24 W/m² | - |
| 1777633657 | 1.11° C | 98% | 1009.3 hPa | 0 mm | - | 23 W/m² | - |
| 1777633355 | 0.56° C | 98% | 1009.2 hPa | 0 mm | - | 23 W/m² | - |
| 1777633052 | 0.56° C | 98% | 1008.9 hPa | 0 mm | - | 20 W/m² | - |
| 1777632748 | 0.56° C | 98% | 1009.1 hPa | 0 mm | - | 18 W/m² | - |
| 1777632444 | 0.56° C | 98% | 1008.9 hPa | 0 mm | - | 17 W/m² | - |
| 1777632142 | 0° C | 98% | 1009 hPa | 0 mm | - | 15 W/m² | - |
| 1777631839 | 0° C | 98% | 1009 hPa | 0 mm | - | 13 W/m² | - |
| 1777631538 | 0° C | 97% | 1009 hPa | 0 mm | - | 11 W/m² | - |
| 1777631234 | 0° C | 97% | 1009 hPa | 0 mm | - | 10 W/m² | - |
| 1777630931 | 0° C | 97% | 1009 hPa | 0 mm | - | 8 W/m² | - |
| 1777630627 | 0° C | 97% | 1009.1 hPa | 0 mm | - | 6 W/m² | - |
| 1777630324 | 0.56° C | 97% | 1009 hPa | 0 mm | - | 3 W/m² | - |
| 1777630022 | 0.56° C | 97% | 1009 hPa | 0 mm | - | 2 W/m² | - |
| 1777629719 | 0.56° C | 97% | 1008.8 hPa | 0 mm | - | 1 W/m² | - |
* Rain latest hour (hover to see other rain measurements)
** Current wind speed in m/s (hover to see current wind gust speed)